Terug naar catalogus

CZ-6A DEB

ActiefPO
NORAD 61306·DEBRIS·🇨🇳 China

Gelanceerd Aug 6, 2024 vanaf Taiyuan Satellite Launch Center

Loading…

Volgende Passages (komende 24 uur)

TLE

VersSource: Space-Track

Epoch: Sep 14, 2026, 05:48 UTC

1 61306U 24140TT  26257.24171836  .00003596  00000-0  10083-2 0  9998
2 61306  88.1138 179.3324 0028623  43.0881 317.2556 14.45607430107563

Volg CZ-6A DEB in realtime met AllMySat

Download on the App Store